QPF
0.00 0.00 0.00 0.00 0.00 0.00 0.00 0.00 0.00 0.00 0.00 0.00 0.00 0.00 0.00 0.00 0.00 0.00 0.00 0.00 0.00 0.00 0.00 0.00 0.00 0.00 0.00 0.00 0.00 0.00 0.00 0.00 0.00 0.00 0.00 0.00 0.00 0.00 0.00 0.00 0.00 0.00 0.00 0.00
0.00 0.00 0.00 0.00 0.00 0.00 0.00 0.00 0.00 0.00 0.00 0.00 0.00 0.00 0.00 0.00 0.00 0.00 0.00 0.00 0.00 0.00 0.00 0.00 0.00 0.00 0.00 0.00 0.00 0.00 0.00 0.00 0.00 0.00 0.00 0.00 0.00 0.00 0.00 0.00 0.00 0.00 0.00 0.00
0.00 0.00 0.00 0.00 0.00 0.00 0.00 0.00 0.00 0.00 0.00 0.00 0.00 0.00 0.00 0.00 0.00 0.00 0.00 0.00 0.00 0.00 0.00 0.00 0.00 0.00 0.00 0.00 0.00 0.00 0.00 0.00 0.00 0.00 0.00 0.00 0.00 0.00 0.00 0.00 0.00 0.00 0.00 0.00
0.00 0.00 0.00 0.00 0.00 0.00 0.00 0.00 0.00 0.00 0.00 0.00 0.00 0.00 0.00 0.00 0.00 0.00 0.00 0.00 0.00 0.00 0.00 0.00 0.00 0.00 0.00 0.00 0.00 0.00 0.00 0.00 0.00 0.00 0.00 0.00 0.00 0.00 0.00 0.00 0.00 0.00 0.00 0.00
0.00 0.00 0.00 0.00 0.00 0.00 0.00 0.00 0.00 0.00 0.00 0.00 0.00 0.00 0.00 0.00 0.00 0.00 0.00 0.00 0.00 0.00 0.00 0.00 0.00 0.00 0.00 0.00 0.00 0.00 0.00 0.00 0.00 0.00 0.00 0.00 0.00 0.00 0.00 0.00 0.00 0.00 0.00 0.00
0.00 0.00 0.00 0.00 0.00 0.00 0.00 0.00 0.00 0.00 0.00 0.00 0.00 0.00 0.00 0.00 0.00 0.00 0.00 0.00 0.00 0.00 0.00 0.00 0.00 0.00 0.00 0.00 0.00 0.00 0.00 0.00 0.00 0.00 0.00 0.00 0.00 0.00 0.00 0.00 0.00 0.00 0.00 0.00
0.00 0.00 0.00 0.00 0.00 0.00 0.00 0.00 0.00 0.00 0.00 0.00 0.00 0.00 0.00 0.00 0.00 0.00 0.00 0.00 0.00 0.00 0.00 0.00 0.00 0.00 0.00 0.00 0.00 0.00 0.00 0.00 0.00 0.00 0.00 0.00 0.00 0.00 0.00 0.00 0.00 0.00 0.00 0.00
0.00 0.00 0.00 0.00 0.00 0.00 0.00 0.00 0.00 0.00 0.00 0.00 0.00 0.00 0.00 0.00 0.00 0.00 0.00 0.00 0.00 0.00 0.00 0.00 0.00 0.00 0.00 0.00 0.00 0.00 0.00 0.00 0.00 0.00 0.00 0.00 0.00 0.00 0.00 0.00 0.00 0.00 0.00 0.00
0.00 0.00 0.00 0.00 0.00 0.00 0.00 0.00 0.00 0.00 0.00 0.00 0.00 0.00 0.00 0.00 0.00 0.00 0.00 0.00 0.00 0.00 0.00 0.00 0.00 0.00 0.00 0.00 0.00 0.00 0.00 0.00 0.00 0.00 0.00 0.00 0.00 0.00 0.00 0.00 0.00 0.00 0.00 0.00
0.00 0.00 0.00 0.00 0.00 0.00 0.00 0.00 0.00 0.00 0.00 0.00 0.00 0.00 0.00 0.00 0.00 0.00 0.00 0.00 0.00 0.00 0.00 0.00 0.00 0.00 0.00 0.00 0.00 0.00 0.00 0.00 0.00 0.00 0.00 0.00 0.00 0.00 0.00 0.00 0.00 0.00 0.00 0.00
0.01 0.00 0.00 0.00 0.00 0.00 0.00 0.00 0.00 0.00 0.00 0.00 0.00 0.00 0.00 0.00 0.00 0.00 0.00 0.00 0.00 0.00 0.00 0.00 0.00 0.00 0.00 0.00 0.00 0.00 0.00 0.00 0.00 0.00 0.00 0.00 0.00 0.00 0.00 0.00 0.00 0.00 0.00 0.00
0.01 0.00 0.00 0.00 0.00 0.00 0.00 0.00 0.00 0.00 0.00 0.00 0.00 0.00 0.00 0.00 0.00 0.00 0.00 0.00 0.00 0.00 0.00 0.00 0.00 0.00 0.00 0.00 0.00 0.00 0.00 0.00 0.00 0.00 0.00 0.00 0.00 0.00 0.00 0.00 0.00 0.00 0.00 0.00
0.01 0.00 0.00 0.00 0.00 0.00 0.00 0.00 0.00 0.00 0.00 0.00 0.00 0.00 0.00 0.00 0.00 0.00 0.00 0.00 0.00 0.00 0.00 0.00 0.00 0.00 0.00 0.00 0.00 0.00 0.00 0.00 0.00 0.00 0.00 0.00 0.00 0.00 0.00 0.00 0.00 0.00 0.00 0.00
0.01 0.00 0.00 0.00 0.00 0.00 0.00 0.00 0.00 0.00 0.00 0.00 0.00 0.00 0.00 0.00 0.00 0.00 0.00 0.00 0.00 0.00 0.00 0.00 0.00 0.00 0.00 0.00 0.00 0.00 0.00 0.00 0.00 0.00 0.00 0.00 0.00 0.00 0.00 0.00 0.00 0.00 0.00 0.00
0.00 0.00 0.00 0.00 0.00 0.00 0.00 0.00 0.01 0.00 0.00 0.00 0.00 0.00 0.00 0.00 0.00 0.00 0.00 0.00 0.00 0.00 0.00 0.00 0.00 0.00 0.00 0.00 0.00 0.00 0.00 0.00 0.00 0.00 0.00 0.00 0.00 0.00 0.00 0.00 0.00 0.00 0.00 0.00
0.00 0.00 0.00 0.00 0.00 0.00 0.00 0.00 0.00 0.00 0.00 0.00 0.00 0.00 0.00 0.00 0.00 0.00 0.00 0.00 0.00 0.00 0.00 0.00 0.00 0.00 0.00 0.00 0.00 0.00 0.00 0.00 0.00 0.00 0.00 0.00 0.00 0.00 0.00 0.00 0.00 0.00 0.00 0.00
0.00 0.01 0.00 0.00 0.00 0.01 0.00 0.00 0.00 0.00 0.00 0.00 0.00 0.00 0.00 0.00 0.00 0.00 0.00 0.00 0.00 0.00 0.00 0.00 0.00 0.00 0.00 0.00 0.00 0.00 0.00 0.00 0.00 0.00 0.00 0.00 0.00 0.00 0.00 0.00 0.00 0.00 0.00 0.00
0.01 0.03 0.02 0.00 0.00 0.00 0.00 0.00 0.00 0.00 0.00 0.00 0.00 0.00 0.00 0.00 0.00 0.00 0.00 0.00 0.00 0.00 0.00 0.00 0.00 0.00 0.00 0.00 0.00 0.00 0.00 0.00 0.00 0.00 0.00 0.00 0.00 0.00 0.00 0.00 0.00 0.00 0.00 0.00
0.03 0.05 0.04 0.00 0.01 0.02 0.00 0.00 0.00 0.00 0.00 0.00 0.00 0.00 0.00 0.00 0.00 0.01 0.00 0.00 0.00 0.00 0.00 0.00 0.00 0.00 0.00 0.00 0.00 0.00 0.00 0.00 0.00 0.00 0.00 0.00 0.00 0.00 0.00 0.00 0.00 0.00 0.00 0.00
0.06 0.08 0.03 0.00 0.00 0.00 0.00 0.01 0.01 0.00 0.00 0.00 0.00 0.00 0.00 0.00 0.00 0.00 0.00 0.00 0.00 0.00 0.00 0.00 0.00 0.00 0.00 0.00 0.00 0.00 0.00 0.00 0.00 0.00 0.00 0.00 0.00 0.00 0.00 0.00 0.00 0.00 0.00 0.00
0.05 0.04 0.01 0.00 0.00 0.01 0.01 0.00 0.00 0.00 0.00 0.00 0.00 0.00 0.00 0.00 0.01 0.01 0.01 0.00 0.00 0.00 0.00 0.01 0.00 0.00 0.00 0.00 0.00 0.00 0.00 0.00 0.00 0.00 0.00 0.00 0.00 0.00 0.00 0.00 0.00 0.00 0.00 0.00
0.01 0.00 0.01 0.01 0.02 0.00 0.00 0.00 0.00 0.00 0.00 0.00 0.00 0.00 0.00 0.00 0.01 0.00 0.00 0.00 0.00 0.00 0.00 0.00 0.00 0.00 0.00 0.00 0.00 0.00 0.00 0.00 0.00 0.00 0.00 0.00 0.00 0.00 0.00 0.00 0.00 0.00 0.00 0.00
0.01 0.00 0.01 0.02 0.01 0.00 0.00 0.00 0.00 0.00 0.00 0.00 0.00 0.00 0.00 0.00 0.00 0.00 0.00 0.00 0.00 0.00 0.00 0.00 0.00 0.00 0.00 0.00 0.00 0.00 0.00 0.00 0.00 0.00 0.00 0.00 0.00 0.00 0.00 0.00 0.00 0.00 0.00 0.00
0.00 0.00 0.00 0.00 0.00 0.00 0.00 0.00 0.00 0.00 0.00 0.00 0.00 0.00 0.00 0.00 0.00 0.00 0.00 0.00 0.00 0.00 0.00 0.00 0.00 0.00 0.00 0.00 0.00 0.00 0.00 0.00 0.00 0.00 0.00 0.00 0.00 0.00 0.00 0.00 0.00 0.00 0.00 0.00
0.01 0.00 0.00 0.00 0.00 0.00 0.00 0.00 0.00 0.00 0.00 0.00 0.00 0.00 0.00 0.00 0.00 0.00 0.00 0.00 0.00 0.00 0.00 0.00 0.00 0.00 0.00 0.00 0.00 0.00 0.00 0.00 0.00 0.00 0.00 0.00 0.00 0.00 0.00 0.00 0.00 0.00 0.00 0.00
0.03 0.01 0.00 0.00 0.00 0.00 0.00 0.00 0.00 0.00 0.00 0.00 0.00 0.00 0.00 0.00 0.00 0.00 0.00 0.00 0.00 0.00 0.00 0.00 0.00 0.00 0.00 0.00 0.00 0.00 0.00 0.00 0.00 0.00 0.00 0.00 0.00 0.00 0.00 0.00 0.00 0.00 0.00 0.00
0.00 0.00 0.01 0.02 0.01 0.01 0.01 0.01 0.02 0.00 0.00 0.00 0.00 0.00 0.00 0.00 0.00 0.00 0.00 0.00 0.00 0.00 0.00 0.00 0.00 0.00 0.00 0.00 0.00 0.00 0.00 0.00 0.00 0.00 0.00 0.00 0.00 0.00 0.00 0.00 0.00 0.00 0.00 0.00
MSLP
1015.98 1016.00 1015.92 1016.01 1016.32 1016.75 1016.96 1016.17 1015.27 1014.18 1014.10 1014.78 1014.27 1013.70 1011.70 1009.98 1008.84 1008.31 1008.34 1008.14 1008.01 1008.05 1008.08 1008.32 1008.67 1009.69 1009.77 1009.43 1009.24 1009.54 1009.67 1009.27 1008.88 1007.91 1007.02 1006.54 1006.78 1007.33 1008.21 1009.68 1010.57 1010.80 1010.86 1010.11
1015.64 1015.66 1015.68 1015.73 1016.22 1016.60 1016.66 1015.72 1014.96 1014.39 1014.45 1014.73 1014.17 1012.97 1011.65 1010.48 1009.25 1008.72 1008.56 1008.53 1008.63 1008.77 1008.86 1009.32 1009.47 1009.96 1010.29 1010.12 1010.29 1010.80 1010.68 1010.46 1010.11 1009.03 1007.86 1007.84 1008.23 1008.54 1008.80 1009.56 1010.30 1010.91 1011.46 1010.87
1015.33 1015.37 1015.39 1015.51 1016.14 1016.62 1017.00 1015.80 1014.89 1015.01 1014.89 1014.13 1013.76 1012.87 1011.68 1010.65 1009.53 1009.42 1009.10 1009.06 1009.11 1009.59 1009.68 1009.66 1010.05 1010.36 1010.53 1010.60 1010.96 1011.17 1011.28 1011.42 1011.42 1011.20 1010.58 1010.14 1009.72 1009.37 1009.39 1009.98 1011.02 1011.36 1011.73 1011.27
1014.94 1014.98 1015.10 1015.36 1015.93 1016.34 1016.84 1015.32 1013.80 1013.43 1014.13 1013.97 1013.53 1012.80 1011.35 1010.58 1010.09 1010.05 1009.82 1009.65 1010.03 1010.36 1010.59 1010.47 1010.57 1010.72 1010.96 1011.14 1011.42 1011.66 1011.99 1012.41 1012.21 1011.86 1011.28 1010.65 1010.24 1010.16 1010.13 1010.59 1011.20 1011.97 1012.97 1013.07
1014.48 1014.71 1014.91 1015.18 1015.62 1016.22 1016.62 1014.90 1013.47 1012.62 1012.82 1012.80 1013.07 1012.37 1011.32 1010.58 1010.34 1010.34 1010.40 1010.60 1010.64 1010.85 1011.25 1011.28 1011.37 1011.41 1011.87 1012.20 1012.14 1012.31 1012.43 1012.98 1013.04 1012.96 1012.11 1011.78 1011.32 1011.07 1011.08 1011.43 1011.98 1012.14 1013.09 1014.29
1014.12 1014.34 1014.59 1015.00 1015.41 1016.07 1015.95 1013.62 1012.72 1012.74 1012.52 1012.69 1012.66 1012.04 1011.33 1010.66 1010.52 1010.42 1010.46 1010.93 1011.17 1011.42 1011.95 1011.89 1011.84 1011.95 1012.29 1012.56 1012.85 1013.14 1013.28 1013.73 1014.14 1014.07 1013.38 1012.92 1012.64 1012.34 1012.29 1012.68 1012.79 1012.86 1013.84 1015.39
1013.73 1013.98 1014.28 1014.72 1015.09 1015.50 1015.81 1014.29 1013.60 1013.34 1013.09 1012.55 1012.16 1011.78 1011.47 1011.16 1010.92 1010.97 1010.99 1011.23 1011.73 1012.56 1012.16 1012.11 1012.08 1012.27 1012.39 1012.54 1012.77 1012.96 1013.64 1014.34 1014.78 1015.28 1014.85 1014.86 1013.73 1013.08 1013.10 1013.87 1014.34 1014.64 1015.27 1016.08
1013.37 1013.67 1014.05 1014.53 1014.89 1015.39 1016.03 1015.09 1014.46 1014.01 1013.40 1012.51 1012.13 1011.82 1011.44 1011.60 1011.64 1011.91 1012.07 1012.62 1012.85 1012.94 1012.95 1013.20 1013.40 1013.45 1013.39 1012.79 1012.66 1012.82 1013.22 1014.33 1015.44 1016.17 1016.30 1015.52 1014.90 1014.23 1014.06 1014.30 1016.03 1016.06 1016.94 1017.78
1013.05 1013.40 1013.84 1014.41 1014.80 1015.26 1015.89 1015.29 1014.27 1014.09 1014.01 1013.59 1012.91 1012.15 1012.15 1012.45 1012.61 1012.94 1013.36 1013.41 1013.14 1013.47 1013.98 1014.39 1014.79 1014.53 1013.61 1012.77 1012.45 1012.32 1012.97 1013.91 1015.52 1016.97 1017.45 1016.63 1016.11 1015.09 1014.38 1014.48 1016.75 1017.39 1017.58 1018.51
1012.77 1013.17 1013.71 1014.26 1014.66 1015.10 1015.49 1015.07 1014.15 1014.22 1014.14 1013.71 1012.90 1013.09 1012.90 1012.66 1013.23 1013.70 1013.70 1013.94 1014.18 1014.48 1015.09 1015.45 1015.80 1015.22 1014.12 1013.44 1012.91 1012.96 1013.41 1014.34 1015.52 1016.71 1017.07 1016.71 1016.27 1015.46 1014.42 1015.80 1018.20 1018.11 1018.60 1019.10
1012.46 1012.98 1013.59 1014.09 1014.56 1014.99 1015.30 1014.82 1014.06 1014.47 1014.38 1014.58 1014.18 1014.00 1013.94 1013.95 1014.25 1014.41 1014.27 1014.90 1015.03 1015.48 1016.20 1016.29 1016.24 1015.84 1014.82 1014.14 1013.43 1013.20 1013.85 1014.79 1015.71 1016.31 1016.99 1016.98 1016.12 1015.97 1016.64 1017.82 1018.11 1018.46 1019.11 1019.73
1012.33 1012.89 1013.47 1013.96 1014.55 1014.81 1015.12 1014.91 1014.01 1013.97 1014.66 1015.15 1014.74 1014.69 1014.71 1014.83 1015.10 1014.96 1014.78 1015.74 1015.61 1016.36 1016.72 1016.87 1016.59 1016.49 1015.73 1015.17 1014.70 1013.61 1014.58 1014.85 1015.55 1016.33 1016.89 1016.59 1016.61 1016.80 1016.98 1017.29 1017.96 1018.59 1019.40 1020.24
1012.28 1012.83 1013.43 1013.98 1014.53 1014.74 1014.89 1014.98 1014.54 1014.58 1015.20 1015.53 1015.31 1015.33 1015.20 1015.10 1015.08 1014.96 1015.57 1016.23 1016.36 1016.83 1016.91 1017.49 1018.02 1017.70 1016.97 1016.62 1015.89 1014.96 1014.90 1014.85 1015.56 1016.21 1016.51 1016.97 1017.24 1017.46 1017.66 1017.94 1018.35 1018.84 1019.49 1020.41
1012.27 1012.92 1013.51 1014.05 1014.54 1014.74 1014.91 1015.12 1014.76 1014.79 1015.60 1016.51 1016.23 1015.41 1015.52 1015.52 1015.44 1015.56 1015.84 1016.46 1016.66 1016.97 1017.63 1018.94 1019.16 1018.84 1017.66 1017.37 1016.62 1016.24 1015.77 1015.41 1015.81 1016.47 1016.93 1017.54 1018.00 1018.10 1018.22 1018.46 1018.75 1019.38 1020.00 1020.43
1012.34 1013.08 1013.61 1014.23 1014.57 1014.76 1014.84 1014.96 1015.01 1014.79 1015.60 1016.55 1016.39 1015.96 1015.99 1015.85 1016.07 1016.27 1016.49 1016.96 1017.49 1018.11 1019.12 1020.05 1019.70 1018.72 1018.28 1017.54 1017.08 1016.76 1015.74 1015.68 1016.18 1016.79 1017.09 1017.82 1018.91 1018.55 1018.39 1019.03 1019.56 1019.97 1020.43 1021.20
1012.60 1013.30 1013.78 1014.24 1014.61 1014.86 1015.01 1015.77 1015.47 1015.06 1015.26 1016.34 1016.92 1016.78 1016.53 1016.42 1016.44 1016.84 1017.22 1017.63 1018.12 1018.59 1019.44 1019.78 1019.26 1018.27 1018.36 1018.32 1017.88 1016.27 1015.55 1015.63 1015.53 1016.72 1017.49 1018.10 1018.89 1019.22 1019.40 1019.78 1020.28 1020.79 1021.43 1022.09
1012.84 1013.42 1013.98 1014.51 1014.89 1014.98 1015.76 1016.39 1016.34 1015.84 1015.57 1016.91 1017.68 1017.36 1016.95 1016.84 1017.09 1017.77 1018.35 1018.56 1019.23 1019.53 1019.93 1019.97 1019.72 1018.99 1018.54 1018.33 1017.89 1016.37 1015.85 1015.82 1016.25 1016.82 1017.60 1018.85 1019.30 1020.25 1020.50 1020.77 1021.21 1021.64 1022.29 1022.89
1013.03 1013.71 1014.36 1014.83 1015.11 1015.70 1016.22 1016.30 1016.03 1015.81 1016.28 1017.01 1018.13 1018.24 1017.95 1017.46 1017.77 1018.66 1018.96 1019.90 1020.33 1020.35 1020.28 1020.09 1019.75 1019.03 1018.53 1018.28 1017.03 1016.24 1015.79 1016.08 1016.89 1017.48 1017.54 1018.62 1019.92 1020.74 1021.44 1021.80 1022.28 1023.05 1023.70 1024.20
1013.29 1014.07 1014.70 1015.12 1015.57 1016.16 1016.59 1016.46 1016.27 1016.39 1017.35 1017.99 1018.28 1018.33 1018.45 1017.94 1018.42 1018.86 1019.54 1019.86 1021.09 1020.70 1020.53 1020.07 1019.70 1019.13 1018.51 1017.35 1016.74 1016.31 1015.99 1016.39 1017.85 1018.61 1019.29 1020.02 1020.82 1021.72 1022.33 1022.74 1023.42 1024.13 1025.03 1025.82
1013.36 1014.50 1015.24 1016.52 1016.23 1016.11 1016.45 1016.95 1017.52 1017.85 1018.02 1018.01 1018.18 1017.60 1018.19 1018.32 1018.66 1019.47 1020.15 1020.14 1020.74 1021.02 1020.13 1019.46 1019.23 1018.86 1017.67 1017.02 1016.53 1016.72 1016.86 1017.17 1018.11 1019.45 1020.65 1021.22 1021.84 1022.44 1022.98 1023.46 1024.00 1024.98 1026.00 1026.99
1013.34 1014.41 1015.69 1016.39 1016.32 1016.70 1017.27 1018.31 1018.82 1019.06 1019.07 1018.40 1017.95 1017.58 1017.94 1018.00 1018.58 1019.55 1020.00 1020.46 1020.73 1020.71 1020.16 1019.67 1019.39 1019.09 1018.66 1017.67 1017.54 1017.89 1018.13 1018.57 1019.23 1019.76 1020.54 1021.17 1021.88 1022.79 1023.47 1024.28 1025.08 1025.94 1026.86 1027.76
1013.16 1013.71 1015.11 1016.28 1016.79 1017.42 1018.36 1018.57 1018.44 1018.58 1018.00 1017.76 1017.60 1017.37 1017.51 1018.04 1018.24 1019.68 1020.65 1020.94 1021.21 1020.90 1020.37 1020.20 1020.07 1019.53 1019.19 1019.11 1019.41 1019.90 1020.29 1020.65 1021.18 1021.47 1021.97 1022.36 1022.94 1023.59 1024.42 1025.36 1026.26 1027.06 1027.88 1028.75
1012.52 1013.93 1015.59 1016.17 1017.22 1017.79 1017.82 1017.73 1017.63 1017.55 1016.72 1016.98 1017.08 1017.41 1017.79 1018.16 1018.79 1020.09 1020.81 1021.34 1021.56 1020.97 1021.03 1020.65 1020.10 1019.83 1020.08 1020.40 1021.03 1021.74 1022.29 1022.65 1023.07 1023.60 1023.93 1024.29 1024.83 1025.33 1025.73 1026.52 1027.40 1028.07 1028.82 1029.49
1013.78 1014.77 1015.80 1016.23 1016.82 1016.53 1016.15 1015.96 1015.86 1015.78 1015.70 1016.34 1016.96 1017.57 1017.86 1018.27 1019.26 1020.27 1020.60 1020.78 1020.99 1021.29 1021.44 1020.95 1020.96 1020.96 1021.21 1021.58 1022.18 1022.72 1023.87 1024.34 1024.70 1025.13 1025.47 1025.84 1026.24 1026.78 1027.25 1027.59 1028.22 1028.75 1029.41 1030.09
1013.61 1014.45 1015.22 1015.42 1015.12 1014.96 1014.69 1014.62 1015.04 1014.98 1015.31 1016.12 1016.96 1017.55 1018.26 1018.89 1019.68 1020.07 1020.41 1020.84 1020.99 1021.02 1020.79 1021.01 1021.41 1021.60 1021.88 1022.48 1022.99 1023.73 1024.60 1025.11 1025.62 1026.08 1026.43 1026.78 1027.16 1027.46 1028.04 1028.54 1028.78 1029.30 1029.87 1030.48
1013.68 1013.73 1014.07 1014.22 1014.65 1014.68 1014.49 1014.41 1014.68 1014.83 1015.38 1016.10 1016.71 1017.71 1018.56 1018.85 1019.36 1019.83 1020.17 1020.58 1020.63 1020.63 1020.93 1021.28 1021.58 1022.05 1022.52 1023.00 1023.51 1024.27 1024.72 1025.22 1025.80 1026.37 1026.74 1027.19 1027.65 1027.92 1028.40 1029.00 1029.41 1029.75 1030.22 1030.80
1014.49 1014.15 1013.66 1013.94 1014.42 1014.56 1014.35 1014.10 1014.68 1014.72 1015.60 1016.23 1016.33 1017.16 1017.66 1017.91 1018.97 1019.71 1019.79 1020.01 1020.31 1020.75 1021.31 1021.63 1022.04 1022.47 1022.86 1023.22 1023.82 1024.36 1024.86 1025.24 1025.81 1026.37 1026.90 1027.46 1028.01 1028.34 1028.81 1029.32 1029.75 1030.06 1030.62 1031.04
Thickness
5549 5558 5566 5573 5577 5580 5584 5598 5606 5623 5631 5614 5625 5626 5656 5674 5679 5685 5677 5682 5682 5678 5683 5680 5681 5672 5685 5702 5704 5690 5697 5696 5680 5699 5724 5737 5726 5712 5699 5661 5661 5668 5655 5649
5544 5552 5560 5567 5571 5575 5582 5597 5604 5616 5620 5606 5617 5638 5651 5662 5671 5674 5674 5672 5678 5680 5678 5665 5674 5676 5685 5692 5689 5678 5685 5672 5659 5674 5700 5700 5692 5694 5691 5684 5671 5661 5641 5643
5538 5547 5555 5562 5565 5568 5571 5589 5595 5600 5609 5619 5628 5634 5641 5649 5669 5665 5671 5671 5673 5668 5670 5679 5667 5669 5681 5686 5684 5675 5679 5672 5661 5643 5661 5676 5671 5681 5684 5676 5649 5650 5653 5662
5533 5541 5549 5556 5559 5563 5565 5586 5604 5609 5595 5609 5621 5631 5645 5647 5648 5660 5664 5663 5661 5659 5653 5661 5664 5672 5669 5677 5675 5673 5666 5649 5656 5660 5668 5674 5674 5672 5672 5666 5661 5645 5634 5635
5531 5539 5546 5550 5553 5557 5561 5581 5600 5614 5616 5622 5619 5628 5639 5644 5648 5651 5650 5651 5656 5657 5652 5656 5653 5658 5652 5649 5662 5659 5661 5640 5647 5641 5659 5656 5655 5657 5655 5655 5648 5649 5634 5619
5525 5533 5540 5545 5549 5552 5560 5588 5604 5603 5611 5614 5615 5623 5636 5645 5650 5656 5658 5653 5651 5650 5649 5656 5660 5659 5659 5658 5652 5646 5644 5636 5629 5629 5644 5639 5622 5637 5638 5637 5635 5636 5621 5613
5521 5529 5535 5540 5544 5549 5557 5577 5590 5594 5599 5611 5617 5628 5633 5637 5645 5645 5652 5655 5649 5648 5662 5663 5663 5662 5658 5655 5651 5652 5640 5632 5628 5612 5620 5582 5625 5645 5638 5620 5618 5617 5613 5607
5516 5524 5530 5534 5539 5544 5547 5562 5576 5584 5591 5611 5618 5626 5631 5634 5637 5634 5636 5639 5644 5648 5648 5636 5633 5630 5637 5644 5650 5648 5645 5630 5610 5588 5595 5615 5617 5626 5621 5614 5594 5605 5596 5588
5511 5519 5524 5529 5534 5538 5542 5553 5570 5577 5580 5585 5604 5615 5622 5614 5618 5623 5626 5635 5642 5640 5630 5625 5602 5592 5629 5636 5643 5654 5649 5639 5611 5579 5578 5588 5606 5618 5624 5623 5575 5591 5589 5576
5506 5514 5519 5523 5529 5534 5539 5549 5565 5571 5576 5586 5601 5598 5607 5620 5616 5609 5623 5628 5625 5630 5614 5613 5597 5609 5636 5620 5629 5629 5625 5623 5609 5587 5574 5594 5608 5613 5623 5581 5572 5578 5570 5564
5502 5509 5513 5519 5524 5529 5534 5546 5559 5563 5570 5575 5588 5594 5594 5601 5605 5606 5616 5607 5609 5607 5606 5606 5606 5608 5619 5624 5634 5632 5620 5599 5596 5594 5579 5566 5609 5607 5587 5579 5578 5572 5565 5553
5496 5503 5508 5514 5518 5524 5529 5540 5554 5562 5563 5565 5577 5583 5587 5591 5592 5598 5606 5600 5607 5604 5601 5603 5611 5608 5609 5613 5600 5637 5602 5611 5598 5595 5586 5601 5604 5595 5594 5588 5578 5569 5555 5544
5489 5497 5502 5508 5513 5520 5526 5534 5545 5552 5550 5551 5563 5569 5580 5587 5592 5600 5592 5593 5599 5596 5602 5598 5592 5596 5599 5590 5601 5612 5616 5621 5603 5595 5600 5591 5587 5583 5579 5575 5569 5561 5553 5541
5482 5490 5496 5502 5507 5514 5520 5527 5538 5545 5543 5522 5544 5569 5571 5578 5583 5588 5591 5589 5592 5595 5590 5569 5561 5563 5596 5589 5599 5595 5600 5609 5601 5594 5594 5584 5578 5576 5574 5568 5563 5551 5542 5535
5476 5482 5490 5494 5500 5508 5515 5523 5532 5540 5535 5520 5542 5557 5563 5570 5574 5577 5580 5580 5579 5578 5568 5550 5547 5579 5584 5589 5590 5585 5599 5592 5583 5574 5587 5576 5566 5569 5570 5558 5549 5541 5532 5522
5467 5475 5483 5488 5494 5502 5510 5506 5522 5531 5537 5528 5519 5546 5553 5560 5566 5566 5568 5570 5571 5572 5567 5567 5572 5585 5580 5565 5573 5593 5601 5602 5602 5583 5577 5570 5561 5557 5553 5546 5539 5531 5520 5510
5461 5468 5475 5480 5487 5496 5497 5498 5512 5520 5528 5512 5512 5528 5545 5552 5555 5552 5551 5554 5554 5557 5554 5555 5562 5568 5574 5553 5548 5589 5592 5594 5589 5582 5573 5560 5557 5541 5538 5532 5525 5519 5512 5504
5453 5460 5467 5473 5481 5486 5491 5498 5506 5514 5517 5518 5499 5517 5526 5543 5542 5537 5544 5535 5535 5538 5545 5551 5555 5562 5566 5548 5577 5585 5590 5587 5577 5571 5570 5559 5544 5534 5526 5518 5510 5502 5494 5489
5447 5453 5458 5465 5471 5475 5482 5491 5500 5505 5503 5493 5505 5506 5503 5533 5531 5535 5531 5537 5516 5532 5525 5543 5548 5551 5536 5566 5576 5579 5587 5581 5563 5555 5548 5539 5529 5520 5515 5508 5500 5491 5478 5465
5442 5443 5446 5439 5459 5472 5478 5480 5474 5478 5490 5503 5499 5524 5515 5522 5523 5516 5517 5525 5515 5515 5527 5547 5531 5544 5565 5570 5574 5575 5572 5567 5558 5540 5530 5524 5517 5511 5507 5502 5493 5480 5466 5453
5437 5439 5438 5447 5457 5462 5466 5459 5459 5468 5472 5493 5502 5518 5511 5522 5514 5505 5519 5513 5511 5520 5535 5537 5538 5536 5550 5556 5559 5554 5553 5550 5544 5539 5531 5524 5516 5505 5497 5488 5477 5464 5452 5442
5438 5446 5444 5443 5448 5444 5448 5451 5467 5473 5489 5494 5497 5508 5515 5514 5519 5501 5498 5506 5502 5518 5524 5509 5510 5535 5540 5541 5538 5531 5526 5522 5516 5515 5510 5508 5503 5494 5482 5468 5458 5449 5441 5431
5438 5434 5433 5439 5437 5446 5458 5464 5474 5469 5497 5498 5501 5497 5503 5507 5507 5493 5490 5489 5489 5508 5499 5525 5520 5531 5525 5522 5516 5506 5502 5499 5495 5488 5482 5478 5471 5467 5462 5453 5444 5437 5429 5418
5415 5413 5429 5425 5438 5449 5463 5477 5479 5488 5500 5499 5495 5495 5493 5500 5493 5485 5495 5498 5496 5493 5494 5501 5508 5504 5502 5502 5496 5490 5482 5478 5474 5469 5465 5461 5457 5451 5445 5440 5433 5427 5420 5410
5420 5427 5419 5438 5457 5469 5479 5487 5488 5496 5499 5494 5486 5487 5491 5482 5484 5492 5496 5495 5496 5508 5501 5496 5489 5491 5493 5488 5486 5478 5471 5466 5462 5456 5452 5447 5444 5440 5434 5428 5424 5418 5411 5404
5426 5441 5442 5458 5457 5456 5469 5481 5484 5493 5491 5489 5493 5489 5482 5490 5482 5495 5497 5500 5499 5497 5487 5485 5485 5484 5480 5477 5474 5469 5468 5461 5456 5450 5445 5439 5433 5431 5425 5418 5413 5408 5404 5395
5419 5427 5453 5456 5456 5457 5474 5481 5479 5486 5485 5479 5493 5491 5487 5496 5479 5486 5493 5488 5481 5477 5476 5477 5478 5474 5473 5471 5467 5462 5459 5458 5452 5444 5438 5433 5426 5422 5416 5411 5405 5402 5396 5390